Location: Pea Ridge
(34.0640°N, 87.8670°W)
Time: 03:51:42
(UTC+00:00)

A-11 Canister half - Pass Details

Date: 20 December 2025
Orbit: 1526 x 1682 km, 47.3° (Epoch: 21 January)

Event Time Altitude Azimuth Distance (km) Brightness Sun altitude
Rises 14:51:22 0° 250° (WSW) 4,850 11.4 18.6°
Reaches altitude 10° 14:54:33 10° 254° (WSW) 3,883 10.9 19.1°
Maximum altitude 15:04:23 60° 333° (NNW) 1,877 9.5 20.4°
Drops below altitude 10° 15:14:25 10° 52° (NE) 3,946 11.2 21.7°
Sets 15:17:42 0° 56° (ENE) 4,933 11.7 22.2°
